Regional Weather Roundup
Issued by NWS New Orleans/Baton Rouge, LA

Home | Current Version | Previous Version | Graphics & Text | Print | Product List | Glossary On
Versions: 1 2 3 4 5 6 7 8 9 10 11 12 13 14 15 16 17 18 19 20 21 22 23 24 25 26 27 28 29 30 31 32 33 34 35 36 37 38 39 40 41 42 43 44 45 46 47 48 49 50
628
ASUS44 KLIX 281810
RWRLIX
NEW ORLEANS REGIONAL WEATHER ROUNDUP
NATIONAL WEATHER SERVICE NEW ORLEANS LA
100 PM CDT MON JUL 28 2014

NOTE: "FAIR" INDICATES FEW OR NO CLOUDS BELOW 12,000 FEET WITH NO
      SIGNIFICANT WEATHER AND/OR OBSTRUCTIONS TO VISIBILITY.
      SKY/WX - SKY CONDITION AND SIGNIFICANT WEATHER.
      TMP - AIR TEMPERATURE.     DP    - DEWPOINT TEMPERATURE.
      RH  - RELATIVE HUMIDITY.   PRES  - PRESSURE.
      HI  - HEAT INDEX.          WCI   - WIND CHILL INDEX.

*  THESE STATIONS ARE NOT NWS OR FAA STATIONS AND ARE NOT UNDER
   NWS QUALITY CONTROL.

LAZ038-040-048-061>063-065>067-069-281900-
SOUTHEAST LOUISIANA

CITY           SKY/WX    TMP DP  RH WIND       PRES   REMARKS
N.O. AUDUBON     N/A     96  76  52 MISG        N/A  HX 108
6HR MIN TEMP:  82; 6HR MAX TEMP:  96;

N.O. INTL ARPT PTSUNNY   92  75  57 W10       30.06F HX 103
6HR MIN TEMP:  80; 6HR MAX TEMP:  93;

N.O. LAKEFRONT MOSUNNY   90  76  63 NW13      30.06F HX 101
6HR MIN TEMP:  83; 6HR MAX TEMP:  90;

N.O. DOWNTOWN*   N/A     93  72  49 W9        30.06F HX 100
6HR MIN TEMP:  82; 6HR MAX TEMP:  93;

SLIDELL        PTSUNNY   90  77  65 MISG      30.04F HX 103
6HR MIN TEMP:  80; 6HR MAX TEMP:  92;

BATON ROUGE    PTSUNNY   89  76  65 NW10      30.08F HX 100
6HR MIN TEMP:  78; 6HR MAX TEMP:  91;

BOOTHVILLE     MOSUNNY   88  77  69 W15       30.08F HX 100
6HR MIN TEMP:  82; 6HR MAX TEMP:  89;

BELLE CHASSE   PTSUNNY   92  71  50 W9        30.05F HX  98
6HR MIN TEMP:  80; 6HR MAX TEMP:  92;

BOGALUSA*        N/A     91  74  57 NW12G18   30.06F HX 101
6HR MIN TEMP:  79; 6HR MAX TEMP:  93;

GALLIANO*      NOT AVBL
NEW ROADS*       N/A     87  77  71 W6        30.08F HX  99
6HR MIN TEMP:  76; 6HR MAX TEMP:  87;

GONZALES*      MOCLDY    88  77  69 W6        30.07F HX 100
6HR MIN TEMP:  79; 6HR MAX TEMP:  89;

HAMMOND*       PTSUNNY   91  73  55 W12       30.07F HX 100
HOUMA*         NOT AVBL
PORT FOURCHON* PTCLDY    90  75  62 W12       30.11S HX 100

$$

MSZ070-080>082-281900-
SOUTHERN MISSISSIPPI

CITY           SKY/WX    TMP DP  RH WIND       PRES   REMARKS
MCCOMB         CLOUDY    88  75  65 W12       30.07F HX  97
6HR MIN TEMP:  77; 6HR MAX TEMP:  89;

GULFPORT       MOSUNNY   96  75  50 NW9       30.02F HX 108
6HR MIN TEMP:  82; 6HR MAX TEMP:  96;

BILOXI         MOSUNNY   93  77  58 VRB3      30.03F HX 107
6HR MIN TEMP:  80; 6HR MAX TEMP:  94;

PASCAGOULA     MOSUNNY   93  75  55 VRB6      30.02F HX 104
6HR MIN TEMP:  79; 6HR MAX TEMP:  93;

STENNIS ARPT*  MOSUNNY  N/A N/A N/A NW9       30.04F

$$

COASTAL OBSERVATIONS
LAKE AND NEARSHORE STATIONS

STATION/POSITION TIME  TEMP    WIND        PRES    WAVE
                       AIR SEA DIR/SP/G            HT/PER
                 (UTC) (F)     (DEG/KT/KT) (MB)    (FT/S)
PASCAGOULA       1800   88     240/ 14/ 18 1016.4
WAVELAND YACHT   1800   90     280/  7/ 12 1016.5
GRAND ISLE       1800   87 86  290/ 11/ 13 1019.3
SOUTHWEST PASS   1800   87 84  310/  7/ 14 1019.3
NEW CANAL        1800   90 85  300/  5/  9 1018.4
SHELL BEACH      1800   88 83  290/  9/ 12 1017.7

OFFSHORE STATIONS

STATION/POSITION TIME  TEMP    WIND        PRES    WAVE
                       AIR SEA DIR/SP/G            HT/PER
                 (UTC) (F)     (DEG/KT/KT) (MB)    (FT/S)
64 S DAUPHIN ISL 1725   84 86  290/ 16/ 17 1018.5

$$




USA.gov is the U.S. government's official web portal to all federal, state and local government web resources and services.